Location: Chiroubles
(46.1812°N, 4.6660°E)
Time: 02:32:39
(UTC+00:00)

Cosmos 192 - Pass Details

Date: 15 August 2020
Orbit: 701 x 713 km, 74.0° (Epoch: 27 September)

Event Time Altitude Azimuth Distance (km) Brightness Sun altitude
Rises 19:49:23 0° 337° (NNW) 3,101 8.6 -10.1°
Reaches altitude 10° 19:51:43 10° 337° (NNW) 2,180 7.8 -10.4°
Maximum altitude 19:56:38 83° 250° (WSW) 716 4.4 -11.1°
Drops below altitude 10° 20:01:32 10° 163° (SSE) 2,171 6.4 -11.8°
Enters shadow 20:01:41 - 163° (SSE) 2,228 6.4 -11.8°
